Location: Colorado Springs
(38.8340°N, 104.8210°W)
Time: 18:17:09
(UTC-06:00)

Vanguard 2 - All Passes

Search period start: 15 August 2018 00:00
Search period end: 25 August 2018 00:00
Orbit: 554 x 2938 km, 32.9° (Epoch: 14 August)

Date Brightness Start Highest point End Pass type
(mag) Time Alt. Az. Time Alt. Az. Time Alt. Az.
15 Aug - 10:09:52 10° S 10:11:56 14° SSE 10:13:58 10° SE daylight
15 Aug - 12:15:48 10° WSW 12:19:29 36° S 12:24:00 10° ESE daylight
15 Aug - 14:23:02 10° WSW 14:27:26 40° S 14:33:56 10° ESE daylight
15 Aug - 16:31:03 10° WSW 16:36:06 25° SSW 16:43:20 10° SSE daylight
16 Aug - 10:26:49 10° SSW 10:29:48 19° SSE 10:32:44 10° ESE daylight
16 Aug - 12:33:40 10° WSW 12:37:25 39° S 12:42:08 10° ESE daylight
16 Aug - 14:41:07 10° WSW 14:45:28 34° S 14:51:46 10° SE daylight
16 Aug - 16:49:49 10° WSW 16:54:13 18° SSW 17:00:03 10° SSE daylight
17 Aug - 10:44:17 10° SW 10:47:42 25° SSE 10:51:06 10° ESE daylight
17 Aug - 12:51:37 10° WSW 12:55:23 39° S 13:00:11 10° ESE daylight
17 Aug - 14:59:18 10° WSW 15:03:30 28° SSW 15:09:24 10° SE daylight
17 Aug - 17:09:31 10° SW 17:12:21 12° SSW 17:15:40 10° S daylight
18 Aug - 08:55:34 10° S 08:57:51 13° SSE 08:59:55 10° SE daylight
18 Aug - 11:01:59 10° SW 11:05:38 31° S 11:09:17 10° ESE daylight
18 Aug - 13:09:37 10° WSW 13:13:22 36° S 13:18:09 10° ESE daylight
18 Aug - 15:17:42 10° WSW 15:21:34 21° SSW 15:26:41 10° SSE daylight
19 Aug - 09:12:22 10° SSW 09:15:49 19° SSE 09:18:46 10° ESE daylight
19 Aug - 11:19:50 10° WSW 11:23:35 35° S 11:27:22 10° ESE daylight
19 Aug - 13:27:42 10° WSW 13:31:21 31° S 13:35:59 10° SE daylight
19 Aug - 15:36:33 10° SW 15:39:37 15° SSW 15:43:24 10° SSE daylight
20 Aug - 09:29:45 10° SW 09:33:47 25° SSE 09:37:09 10° ESE daylight
20 Aug - 11:37:48 10° WSW 11:41:32 37° S 11:45:23 10° ESE daylight
20 Aug - 13:45:54 10° WSW 13:49:20 25° SSW 13:53:38 10° SE daylight
21 Aug - 07:40:05 10° SSW 07:43:37 15° SSE 07:46:31 10° SE daylight
21 Aug - 09:47:25 10° SW 09:51:45 31° S 09:55:19 10° ESE daylight
21 Aug - 11:55:49 10° WSW 11:59:29 34° S 12:03:20 10° ESE daylight
21 Aug - 14:04:19 10° WSW 14:07:20 18° SSW 14:10:57 10° SSE daylight
22 Aug - 07:56:54 10° SSW 08:01:40 21° SSE 08:05:18 10° ESE daylight
22 Aug - 10:05:17 10° WSW 10:09:43 36° S 10:13:24 10° ESE daylight
22 Aug - 12:13:55 10° WSW 12:17:26 30° S 12:21:11 10° SE daylight
22 Aug - 14:23:17 10° SW 14:25:19 13° SSW 14:27:35 10° S daylight
23 Aug - 06:07:52 10° S 06:11:00 12° SSE 06:13:41 10° SE daylight
23 Aug - 08:14:15 10° SW 08:19:42 28° SSE 08:23:40 10° ESE daylight
23 Aug - 10:23:16 10° WSW 10:27:41 38° S 10:31:24 10° ESE daylight
23 Aug - 12:32:07 10° WSW 12:35:22 24° SSW 12:38:50 10° SE daylight
24 Aug - 06:23:40 10° SSW 06:29:08 18° SSE 06:33:16 10° ESE daylight
24 Aug - 08:31:56 10° SW 08:37:43 34° S 08:41:50 10° ESE daylight
24 Aug - 10:41:19 10° WSW 10:45:39 37° S 10:49:20 10° ESE daylight
24 Aug - 12:50:31 10° WSW 12:53:17 18° SSW 12:56:13 10° SSE daylight
